Погода в Лендерах

Россия / Республика Карелия     63°25′41″N   31°10′18″E
темп.,
°C
ветер,
м/с
пор.,
м/с
влажн.,
%
обл.,
%
осадки,
мм/ч
давл.,
гПа
погр.,
м
23 апреля, пт
пт2300:00+2юв2596100 0.0 1007201
03:00−1вюв2698100 0.0 1007108
06:00+2в31096100 1.9 1005541
09:00+3вюв4994100 6.8 1004652
12:00+4юв4996100 1.3 1005793
15:00+5ююз488288 1.9 1006864
18:00+5ююз2583100 0.1 1006385
21:00+1в1196100 0.2 100611
24 апреля, сб
сб2400:000юв1196100 0.2 100611
03:00−2вюв119819 0.2 100712
06:00−2вюв12968 0.0 100751
09:00+4ююв367481 0.0 1008656
12:00+6юв3463100 0.1 10081334
15:00+6вюв3459100 0.4 10081225
18:00+6в2466100 0.3 1007228
21:00+3св3788100 0.8 1008211
25 апреля, вс
вс2500:00+2с3898100 0.8 1007665
03:00+2с51297100 1.6 1005765
06:00+1с41197100 2.0 1004537
09:00+2ссв41097100 2.1 1003342
12:00+8св587922 0.0 1003627
15:00+10св587191 0.8 10031211
18:00+9св51071100 0.6 10041130
21:00+6ссв51283100 0.7 1005689
26 апреля, пн
пн2600:00+4ссв61193100 0.0 10061029
03:00+3ссв61496100 0.3 1006772
06:00+1ссв61496100 0.3 1007746
09:00+1ссв61388100 0.4 1008738
12:00+2ссв6118098 0.0 1009805
15:00+3ссв5979100 0.1 1010931
18:00+3ссв5978100 0.1 10101077
21:00+1ссв4984100 0.1 1010792
27 апреля, вт
вт2700:00−1ссв4987100 0.0 1011669
03:00−2ссв388999 0.0 1011595
06:00−2ссв4884100 0.0 1011630
09:000св4662100 0.0 10111182
12:00+3св4548100 0.0 10111679
15:00+4св4546100 0.1 10111756
18:00+3св455398 0.1 10111368
21:00−1всв237488 0.3 101259